Weather History for Burbank, CA

Change the Weather History Date:

Wednesday, January 9, 2013

  Actual Average Record
Temperature  
Mean Temperature 57 °F 55 °F  
Max Temperature 68 °F 68 °F 88 °F (1983)
Min Temperature 45 °F 42 °F 31 °F (1972)
Degree Days  
Heating Degree Days 8 10  
Month to date heating degree days 101 96  
Since 1 July heating degree days 558 663  
Cooling Degree Days 0 0  
Month to date cooling degree days 0 0  
Year to date cooling degree days 0 0  
Growing Degree Days 6 (Base 50)    
Moisture  
Dew Point 40 °F    
Average Humidity 61    
Maximum Humidity 89    
Minimum Humidity 32    
Precipitation  
Precipitation 0.00 in 0.11 in 2.62 in (2005)
Month to date precipitation 0.06 0.99  
Year to date precipitation 0.06 0.99  
Since 1 July precipitation 2.86 5.75  
Sea Level Pressure  
Sea Level Pressure 30.04 in    
Wind  
Wind Speed 4 mph (SSE)    
Max Wind Speed 10 mph    
Max Gust Speed 17 mph    
Visibility 9 miles    
Events      
T = Trace of Precipitation, MM = Missing Value Source: NWS Daily Summary

Daily Weather History Graph

Daily Weather History Graph

Search for Another Location

Airport:

Trip Planner

Search our weather history database for the weather conditions in past years. The results will help you decide how hot, cold, wet, or windy it might be!

Date:

Astronomy

Jan. 09, 2013 Rise Set
Actual Time 6:59 AM PST 5:01 PM PST
Civil Twilight 6:32 AM PST 5:29 PM PST
Nautical Twilight 6:01 AM PST 6:00 PM PST
Astronomical Twilight 5:31 AM PST 6:30 PM PST
Moon 4:44 AM PST (1/9) 3:08 PM PST (1/9)
Length of Visible Light 10h 56m
Length of Day
10h 01m
Waning Crescent, 6% of the Moon is Illuminated
Jan 9
Waning Crescent
Jan 11
New
Jan 18
First Quarter
Jan 26
Full
Feb 3
Last Quarter

Hourly Weather History & Observations

Time (PST) Temp. Dew Point Humidity Pressure Visibility Wind Dir Wind Speed Gust Speed Precip Events Conditions
12:53 AM 48.0 °F 36.0 °F 63% 30.08 in 10.0 mi Calm Calm - N/A   Clear
1:53 AM 48.0 °F 36.0 °F 63% 30.08 in 10.0 mi Calm Calm - N/A   Clear
2:53 AM 48.9 °F 35.1 °F 59% 30.08 in 10.0 mi West 3.5 mph - N/A   Clear
3:53 AM 48.0 °F 35.1 °F 61% 30.07 in 10.0 mi Calm Calm - N/A   Clear
4:53 AM 45.0 °F 35.1 °F 68% 30.06 in 10.0 mi Calm Calm - N/A   Clear
5:53 AM 46.9 °F 35.1 °F 63% 30.08 in 10.0 mi Calm Calm - N/A   Clear
6:53 AM 45.0 °F 35.1 °F 68% 30.08 in 10.0 mi Calm Calm - N/A   Clear
7:53 AM 48.0 °F 35.1 °F 61% 30.10 in 10.0 mi Calm Calm - N/A   Clear
8:53 AM 55.0 °F 37.9 °F 53% 30.10 in 10.0 mi Calm Calm - N/A   Clear
9:53 AM 60.1 °F 39.0 °F 46% 30.10 in 10.0 mi Calm Calm - N/A   Clear
10:53 AM 64.0 °F 37.0 °F 37% 30.09 in 10.0 mi Calm Calm - N/A   Clear
11:53 AM 66.9 °F 36.0 °F 32% 30.06 in 10.0 mi SSE 5.8 mph - N/A   Clear
12:53 PM 68.0 °F 37.0 °F 32% 30.03 in 10.0 mi SE 8.1 mph - N/A   Clear
1:53 PM 66.9 °F 37.0 °F 33% 30.02 in 10.0 mi South 6.9 mph - N/A   Clear
2:53 PM 66.9 °F 39.0 °F 36% 30.01 in 10.0 mi South 8.1 mph - N/A   Clear
3:53 PM 64.9 °F 42.1 °F 43% 30.01 in 10.0 mi South 6.9 mph - N/A   Clear
4:53 PM 62.1 °F 44.1 °F 52% 30.01 in 10.0 mi SSE 3.5 mph - N/A   Clear
5:53 PM 57.9 °F 46.0 °F 65% 30.01 in 9.0 mi South 4.6 mph - N/A   Clear
6:53 PM 55.9 °F 44.1 °F 64% 30.01 in 10.0 mi ESE 6.9 mph - N/A   Clear
7:53 PM 52.0 °F 46.9 °F 83% 30.02 in 7.0 mi South 5.8 mph - N/A   Clear
8:14 PM 51.8 °F 48.2 °F 88% 30.03 in 5.0 mi South 4.6 mph - N/A   Scattered Clouds
8:23 PM 51.8 °F 48.2 °F 88% 30.03 in 5.0 mi SSE 5.8 mph - N/A   Mostly Cloudy
8:53 PM 51.1 °F 48.0 °F 89% 30.01 in 4.0 mi South 4.6 mph - N/A   Overcast
9:53 PM 52.0 °F 46.9 °F 83% 30.01 in 5.0 mi South 8.1 mph - N/A   Haze
10:53 PM 53.1 °F 46.0 °F 77% 30.01 in 5.0 mi South 4.6 mph - N/A   Haze
11:53 PM 53.1 °F 46.0 °F 77% 29.98 in 6.0 mi SE 5.8 mph - N/A   Haze